TimeEDT,TemperatureF,Dew PointF,Humidity,Sea Level PressureIn,VisibilityMPH,Wind Direction,Wind SpeedMPH,Gust SpeedMPH,PrecipitationIn,Events,Conditions,WindDirDegrees,DateUTC
12:15 AM,71.6,71.6,100,30.20,7.0,Calm,Calm,-,N/A,,Scattered Clouds,0,2012-10-04 04:15:00
12:35 AM,71.6,71.6,100,30.20,7.0,Calm,Calm,-,N/A,,Scattered Clouds,0,2012-10-04 04:35:00
12:55 AM,71.6,71.6,100,30.20,7.0,Calm,Calm,-,N/A,,Scattered Clouds,0,2012-10-04 04:55:00
1:15 AM,71.6,71.6,100,30.20,7.0,Calm,Calm,-,N/A,,Mostly Cloudy,0,2012-10-04 05:15:00
1:35 AM,71.6,71.6,100,30.20,7.0,Calm,Calm,-,N/A,,Overcast,0,2012-10-04 05:35:00
1:55 AM,71.6,71.6,100,30.20,7.0,Calm,Calm,-,N/A,,Overcast,0,2012-10-04 05:55:00
2:15 AM,71.6,71.6,100,30.19,10.0,Calm,Calm,-,N/A,Rain,Light Rain,0,2012-10-04 06:15:00
2:35 AM,71.6,71.6,100,30.19,7.0,Calm,Calm,-,N/A,,Overcast,0,2012-10-04 06:35:00
2:55 AM,71.6,71.6,100,30.19,7.0,Calm,Calm,-,N/A,,Overcast,0,2012-10-04 06:55:00
3:15 AM,71.6,71.6,100,30.19,7.0,Calm,Calm,-,N/A,,Overcast,0,2012-10-04 07:15:00
3:35 AM,71.6,71.6,100,30.18,7.0,Calm,Calm,-,N/A,,Overcast,0,2012-10-04 07:35:00
3:55 AM,71.6,71.6,100,30.18,7.0,Calm,Calm,-,N/A,,Mostly Cloudy,0,2012-10-04 07:55:00
4:15 AM,69.8,69.8,100,30.18,5.0,Calm,Calm,-,N/A,,Scattered Clouds,0,2012-10-04 08:15:00
4:35 AM,69.8,69.8,100,30.18,7.0,Calm,Calm,-,N/A,,Mostly Cloudy,0,2012-10-04 08:35:00
4:55 AM,71.6,71.6,100,30.18,5.0,Calm,Calm,-,N/A,,Overcast,0,2012-10-04 08:55:00
5:15 AM,69.8,69.8,100,30.20,7.0,Calm,Calm,-,N/A,,Scattered Clouds,0,2012-10-04 09:15:00
5:35 AM,69.8,69.8,100,30.20,7.0,Calm,Calm,-,N/A,,Clear,0,2012-10-04 09:35:00
5:55 AM,69.8,69.8,100,30.20,5.0,Calm,Calm,-,N/A,,Clear,0,2012-10-04 09:55:00
6:15 AM,69.8,69.8,100,30.21,7.0,Calm,Calm,-,N/A,,Mostly Cloudy,0,2012-10-04 10:15:00
6:35 AM,69.8,69.8,100,30.21,5.0,Calm,Calm,-,N/A,,Overcast,0,2012-10-04 10:35:00
6:55 AM,69.8,69.8,100,30.21,5.0,Calm,Calm,-,N/A,,Mostly Cloudy,0,2012-10-04 10:55:00
7:15 AM,69.8,69.8,100,30.22,5.0,Calm,Calm,-,N/A,,Overcast,0,2012-10-04 11:15:00
7:35 AM,69.8,69.8,100,30.22,4.0,Calm,Calm,-,N/A,,Overcast,0,2012-10-04 11:35:00
7:55 AM,69.8,69.8,100,30.22,4.0,Calm,Calm,-,N/A,,Overcast,0,2012-10-04 11:55:00
8:15 AM,69.8,69.8,100,30.22,7.0,Calm,Calm,-,N/A,,Overcast,0,2012-10-04 12:15:00
8:35 AM,71.6,69.8,94,30.23,10.0,Calm,Calm,-,N/A,Rain,Light Rain,0,2012-10-04 12:35:00
8:55 AM,71.6,69.8,94,30.24,7.0,Calm,Calm,-,N/A,,Overcast,0,2012-10-04 12:55:00
9:15 AM,71.6,69.8,94,30.23,7.0,Calm,Calm,-,N/A,,Mostly Cloudy,0,2012-10-04 13:15:00
9:35 AM,73.4,68.0,83,30.23,7.0,Calm,Calm,-,N/A,,Scattered Clouds,0,2012-10-04 13:35:00
9:55 AM,75.2,68.0,78,30.24,7.0,North,3.5,-,N/A,,Scattered Clouds,10,2012-10-04 13:55:00
10:15 AM,75.2,69.8,83,30.24,5.0,Calm,Calm,-,N/A,,Haze,0,2012-10-04 14:15:00
10:35 AM,77.0,69.8,78,30.24,7.0,Calm,Calm,-,N/A,,Overcast,0,2012-10-04 14:35:00
10:55 AM,77.0,69.8,78,30.24,5.0,NNE,3.5,-,N/A,,Haze,20,2012-10-04 14:55:00
11:15 AM,77.0,69.8,78,30.24,7.0,Calm,Calm,-,N/A,,Overcast,0,2012-10-04 15:15:00
11:35 AM,77.0,69.8,78,30.24,7.0,Calm,Calm,-,N/A,,Overcast,0,2012-10-04 15:35:00
11:55 AM,78.8,69.8,74,30.24,7.0,Calm,Calm,-,N/A,,Overcast,0,2012-10-04 15:55:00
12:15 PM,78.8,69.8,74,30.24,5.0,Calm,Calm,-,N/A,,Haze,0,2012-10-04 16:15:00
12:35 PM,78.8,69.8,74,30.23,7.0,North,4.6,-,N/A,,Overcast,360,2012-10-04 16:35:00
12:55 PM,78.8,69.8,74,30.22,7.0,Calm,Calm,-,N/A,,Overcast,0,2012-10-04 16:55:00
1:15 PM,78.8,69.8,74,30.22,5.0,Calm,Calm,-,N/A,,Haze,0,2012-10-04 17:15:00
1:35 PM,78.8,69.8,74,30.21,7.0,North,4.6,-,N/A,,Mostly Cloudy,350,2012-10-04 17:35:00
1:55 PM,78.8,71.6,78,30.20,10.0,NW,3.5,-,N/A,Rain,Light Rain,320,2012-10-04 17:55:00
2:15 PM,77.0,69.8,78,30.20,7.0,Calm,Calm,-,N/A,,Mostly Cloudy,0,2012-10-04 18:15:00
2:35 PM,77.0,69.8,78,30.19,7.0,Calm,Calm,-,N/A,,Scattered Clouds,0,2012-10-04 18:35:00
2:55 PM,77.0,71.6,83,30.19,5.0,NW,4.6,-,N/A,,Haze,320,2012-10-04 18:55:00
3:15 PM,78.8,71.6,78,30.18,4.0,Calm,Calm,-,N/A,,Haze,0,2012-10-04 19:15:00
3:35 PM,78.8,69.8,74,30.18,7.0,NNW,3.5,-,N/A,,Scattered Clouds,340,2012-10-04 19:35:00
3:55 PM,78.8,69.8,74,30.17,7.0,WNW,3.5,-,N/A,,Mostly Cloudy,290,2012-10-04 19:55:00
4:15 PM,77.0,69.8,78,30.17,5.0,Calm,Calm,-,N/A,,Haze,0,2012-10-04 20:15:00
4:35 PM,78.8,69.8,74,30.17,7.0,Calm,Calm,-,N/A,,Mostly Cloudy,0,2012-10-04 20:35:00
5:15 PM,78.8,69.8,74,30.17,7.0,WNW,3.5,-,N/A,,Mostly Cloudy,290,2012-10-04 21:15:00
5:35 PM,78.8,69.8,74,30.17,7.0,West,4.6,-,N/A,,Mostly Cloudy,270,2012-10-04 21:35:00
5:55 PM,77.0,69.8,78,30.17,7.0,West,3.5,-,N/A,,Scattered Clouds,260,2012-10-04 21:55:00
6:15 PM,75.2,69.8,83,30.17,7.0,Calm,Calm,-,N/A,,Scattered Clouds,0,2012-10-04 22:15:00
6:35 PM,73.4,69.8,88,30.17,7.0,Calm,Calm,-,N/A,,Clear,0,2012-10-04 22:35:00
6:55 PM,73.4,69.8,88,30.17,7.0,Calm,Calm,-,N/A,,Clear,0,2012-10-04 22:55:00
7:15 PM,71.6,71.6,100,30.17,7.0,Calm,Calm,-,N/A,,Clear,0,2012-10-04 23:15:00
7:35 PM,71.6,71.6,100,30.17,7.0,Calm,Calm,-,N/A,,Clear,0,2012-10-04 23:35:00
7:55 PM,71.6,71.6,100,30.17,7.0,Calm,Calm,-,N/A,,Clear,0,2012-10-04 23:55:00
8:15 PM,69.8,69.8,100,30.17,7.0,Calm,Calm,-,N/A,,Clear,0,2012-10-05 00:15:00
8:35 PM,69.8,69.8,100,30.18,7.0,Calm,Calm,-,N/A,,Clear,0,2012-10-05 00:35:00
9:15 PM,69.8,69.8,100,30.18,5.0,Calm,Calm,-,N/A,,Clear,0,2012-10-05 01:15:00
9:35 PM,69.8,69.8,100,30.19,7.0,Calm,Calm,-,N/A,,Clear,0,2012-10-05 01:35:00
10:15 PM,69.8,69.8,100,30.20,5.0,Calm,Calm,-,N/A,,Clear,0,2012-10-05 02:15:00
10:35 PM,69.8,69.8,100,30.20,4.0,Calm,Calm,-,N/A,,Clear,0,2012-10-05 02:35:00
10:55 PM,69.8,69.8,100,30.21,5.0,Calm,Calm,-,N/A,,Clear,0,2012-10-05 02:55:00
11:15 PM,68.0,68.0,100,30.21,5.0,Calm,Calm,-,N/A,,Clear,0,2012-10-05 03:15:00
11:35 PM,68.0,68.0,100,30.21,4.0,Calm,Calm,-,N/A,,Clear,0,2012-10-05 03:35:00
11:55 PM,68.0,68.0,100,30.21,4.0,Calm,Calm,-,N/A,,Clear,0,2012-10-05 03:55:00